Location: St. Louis
(38.6270°N, 90.1994°W)
Time: 08:23:15
(UTC-06:00)

Transit 4A - Pass Details

Date: 03 December 2021
Orbit: 864 x 981 km, 66.8° (Epoch: 19 January)

Event Time Altitude Azimuth Distance (km) Brightness Sun altitude
Rises 02:11:37 0° 345° (NNW) 3,601 - -55.7°
Reaches altitude 10° 02:16:49 10° 22° (NNE) 2,686 - -54.8°
Maximum altitude 02:18:14 11° 36° (NE) 2,639 - -54.5°
Drops below altitude 10° 02:19:39 10° 49° (NE) 2,699 - -54.2°
Exits shadow 02:22:05 - 69° (ENE) 3,029 11.0 -53.8°
Sets 02:24:55 0° 85° (E) 3,665 11.6 -53.2°
